• In Germany
  • List of Countries
  • For 7 days
  • Water Temperature
  • Satellite Maps
  • Weather Map
  • Weather Widgets
  • user-avatar
    Login

    Hourly Weather Idzhewan

    Today, 21 July, Friday

    Time Temperature Precipitation Wind Pressure Humidity
    00:00 +21°C° 0 mm 2 mps 692 mmHg 52%
    01:00 +21°C° 0 mm 2 mps 692 mmHg 53%
    02:00 +20°C° 0 mm 2 mps 692 mmHg 54%
    03:00 +21°C° 0 mm 2 mps 691 mmHg 64%
    04:00 +21°C° 0 mm 2 mps 691 mmHg 64%
    05:00 +23°C° 0 mm 2 mps 691 mmHg 65%
    06:00 +23°C° 0 mm 2 mps 691 mmHg 66%
    07:00 +25°C° 0 mm 2 mps 692 mmHg 59%
    08:00 +27°C° 0 mm 2 mps 692 mmHg 53%
    09:00 +29°C° 0 mm 2 mps 692 mmHg 47%
    10:00 +31°C° 0 mm 2 mps 692 mmHg 44%
    11:00 +32°C° 0 mm 2 mps 692 mmHg 41%
    12:00 +34°C° 0 mm 3 mps 692 mmHg 38%
    13:00 +35°C° 0 mm 3 mps 692 mmHg 37%
    14:00 +35°C° 0 mm 3 mps 692 mmHg 36%
    15:00 +36°C° 0 mm 4 mps 692 mmHg 35%
    16:00 +35°C° 0 mm 3 mps 692 mmHg 37%
    17:00 +34°C° 0 mm 3 mps 692 mmHg 39%
    18:00 +33°C° 0 mm 3 mps 692 mmHg 41%
    19:00 +30°C° 0 mm 2 mps 692 mmHg 42%
    20:00 +27°C° 0 mm 2 mps 692 mmHg 42%
    21:00 +25°C° 0 mm 2 mps 692 mmHg 43%
    22:00 +24°C° 0 mm 2 mps 693 mmHg 44%
    23:00 +24°C° 0 mm 2 mps 693 mmHg 44%

    Tomorrow, 22 July, Saturday

    Time Temperature Precipitation Wind Pressure Humidity
    00:00 +23°C° 0 mm 2 mps 693 mmHg 44%
    01:00 +21°C° 0 mm 2 mps 693 mmHg 45%
    02:00 +21°C° 0 mm 2 mps 693 mmHg 45%
    03:00 +20°C° 0 mm 2 mps 693 mmHg 46%
    04:00 +21°C° 0 mm 2 mps 693 mmHg 47%
    05:00 +21°C° 0 mm 2 mps 693 mmHg 48%
    06:00 +21°C° 0 mm 2 mps 693 mmHg 50%
    07:00 +24°C° 0 mm 2 mps 693 mmHg 44%
    08:00 +27°C° 0 mm 2 mps 693 mmHg 39%
    09:00 +29°C° 0 mm 2 mps 694 mmHg 34%
    10:00 +30°C° 0 mm 2 mps 693 mmHg 33%
    11:00 +31°C° 0 mm 2 mps 693 mmHg 31%
    12:00 +34°C° 0 mm 3 mps 693 mmHg 30%
    13:00 +34°C° 0 mm 3 mps 693 mmHg 30%
    14:00 +35°C° 0 mm 3 mps 693 mmHg 30%
    15:00 +35°C° 0 mm 4 mps 692 mmHg 30%
    16:00 +34°C° 0 mm 3 mps 692 mmHg 33%
    17:00 +34°C° 0 mm 3 mps 692 mmHg 36%
    18:00 +33°C° 0 mm 3 mps 692 mmHg 39%
    19:00 +29°C° 0 mm 2 mps 692 mmHg 41%
    20:00 +27°C° 0 mm 2 mps 692 mmHg 43%
    21:00 +25°C° 0 mm 2 mps 692 mmHg 44%
    22:00 +24°C° 0 mm 2 mps 692 mmHg 45%
    23:00 +23°C° 0 mm 2 mps 692 mmHg 46%

    Day after tomorrow, 23 July, Sunday

    Time Temperature Precipitation Wind Pressure Humidity
    00:00 +23°C° 0 mm 2 mps 692 mmHg 47%
    01:00 +21°C° 0 mm 2 mps 692 mmHg 48%
    02:00 +21°C° 0 mm 2 mps 691 mmHg 50%
    03:00 +20°C° 0 mm 2 mps 691 mmHg 51%
    04:00 +21°C° 0 mm 2 mps 691 mmHg 51%
    05:00 +21°C° 0 mm 2 mps 691 mmHg 52%
    06:00 +23°C° 0 mm 2 mps 691 mmHg 53%
    07:00 +25°C° 0 mm 2 mps 691 mmHg 47%
    08:00 +27°C° 0 mm 2 mps 692 mmHg 41%
    09:00 +29°C° 0 mm 2 mps 692 mmHg 35%
    10:00 +31°C° 0 mm 2 mps 691 mmHg 34%
    11:00 +32°C° 0 mm 2 mps 691 mmHg 32%
    12:00 +34°C° 0 mm 2 mps 691 mmHg 31%
    13:00 +34°C° 0 mm 2 mps 691 mmHg 31%
    14:00 +35°C° 0 mm 3 mps 690 mmHg 31%
    15:00 +35°C° 0 mm 3 mps 690 mmHg 31%
    16:00 +34°C° 0 mm 3 mps 690 mmHg 33%
    17:00 +34°C° 0 mm 2 mps 690 mmHg 36%
    18:00 +32°C° 0 mm 2 mps 690 mmHg 38%
    19:00 +29°C° 0 mm 2 mps 690 mmHg 40%
    20:00 +27°C° 0 mm 2 mps 690 mmHg 41%
    21:00 +25°C° 0 mm 2 mps 691 mmHg 43%
    22:00 +24°C° 0 mm 2 mps 691 mmHg 46%
    23:00 +24°C° 0 mm 2 mps 691 mmHg 48%

    24 July, Monday

    Time Temperature Precipitation Wind Pressure Humidity
    00:00 +23°C° 0 mm 2 mps 691 mmHg 51%
    01:00 +21°C° 0 mm 2 mps 691 mmHg 56%
    02:00 +21°C° 0 mm 2 mps 691 mmHg 60%
    03:00 +20°C° 0 mm 2 mps 690 mmHg 65%
    04:00 +21°C° 0 mm 2 mps 691 mmHg 66%
    05:00 +21°C° 0 mm 2 mps 691 mmHg 68%
    06:00 +21°C° 0 mm 2 mps 691 mmHg 69%
    07:00 +24°C° 0 mm 2 mps 691 mmHg 62%
    08:00 +26°C° 0 mm 2 mps 691 mmHg 55%
    09:00 +28°C° 0 mm 2 mps 691 mmHg 47%
    10:00 +30°C° 0 mm 2 mps 691 mmHg 44%
    11:00 +31°C° 0 mm 3 mps 691 mmHg 41%
    12:00 +33°C° 0 mm 3 mps 691 mmHg 37%
    13:00 +34°C° 0 mm 3 mps 690 mmHg 37%
    14:00 +34°C° 0 mm 3 mps 690 mmHg 36%
    15:00 +35°C° 0 mm 4 mps 690 mmHg 35%
    16:00 +34°C° 0 mm 3 mps 690 mmHg 38%
    17:00 +33°C° 0 mm 3 mps 690 mmHg 40%
    18:00 +33°C° 0 mm 3 mps 690 mmHg 43%
    19:00 +29°C° 0 mm 2 mps 690 mmHg 45%
    20:00 +27°C° 0 mm 2 mps 690 mmHg 48%
    21:00 +25°C° 0 mm 1 mps 690 mmHg 50%
    22:00 +24°C° 0 mm 2 mps 690 mmHg 51%
    23:00 +24°C° 0 mm 2 mps 690 mmHg 52%

    25 July, Tuesday

    Time Temperature Precipitation Wind Pressure Humidity
    00:00 +23°C° 0 mm 2 mps 690 mmHg 53%
    01:00 +23°C° 0 mm 2 mps 690 mmHg 55%
    02:00 +21°C° 0 mm 2 mps 690 mmHg 57%
    03:00 +21°C° 0 mm 2 mps 690 mmHg 58%
    04:00 +21°C° 0 mm 2 mps 690 mmHg 58%
    05:00 +21°C° 0 mm 2 mps 690 mmHg 58%
    06:00 +23°C° 0 mm 1 mps 690 mmHg 58%
    07:00 +25°C° 0 mm 2 mps 690 mmHg 51%
    08:00 +27°C° 0 mm 2 mps 690 mmHg 45%
    09:00 +29°C° 0 mm 2 mps 690 mmHg 39%
    10:00 +30°C° 0 mm 2 mps 690 mmHg 37%
    11:00 +32°C° 0 mm 2 mps 690 mmHg 35%
    12:00 +34°C° 0 mm 3 mps 689 mmHg 33%
    13:00 +34°C° 0 mm 3 mps 689 mmHg 32%
    14:00 +35°C° 0 mm 3 mps 689 mmHg 32%
    15:00 +36°C° 0 mm 3 mps 689 mmHg 32%
    16:00 +35°C° 0 mm 3 mps 689 mmHg 36%
    17:00 +34°C° 0 mm 3 mps 688 mmHg 39%
    18:00 +32°C° 0 mm 2 mps 688 mmHg 43%
    19:00 +30°C° 0 mm 2 mps 689 mmHg 48%
    20:00 +28°C° 0 mm 2 mps 689 mmHg 52%
    21:00 +25°C° 0 mm 1 mps 689 mmHg 57%
    22:00 +25°C° 0 mm 2 mps 689 mmHg 58%
    23:00 +24°C° 0 mm 2 mps 689 mmHg 58%

    26 July, Wednesday

    Time Temperature Precipitation Wind Pressure Humidity
    00:00 +23°C° 0 mm 2 mps 690 mmHg 59%
    01:00 +23°C° 0 mm 2 mps 690 mmHg 60%
    02:00 +21°C° 0 mm 2 mps 690 mmHg 62%
    03:00 +22°C° 0 mm 1 mps 690 mmHg 63%
    04:00 +21°C° 0 mm 2 mps 690 mmHg 62%
    05:00 +23°C° 0 mm 2 mps 690 mmHg 62%
    06:00 +23°C° 0 mm 2 mps 690 mmHg 61%
    07:00 +26°C° 0 mm 2 mps 690 mmHg 53%
    08:00 +28°C° 0 mm 1 mps 690 mmHg 46%
    09:00 +31°C° 0 mm 1 mps 691 mmHg 38%
    10:00 +32°C° 0 mm 1 mps 691 mmHg 35%
    11:00 +35°C° 0 mm 2 mps 691 mmHg 32%
    12:00 +36°C° 0 mm 2 mps 690 mmHg 29%
    13:00 +36°C° 0 mm 2 mps 690 mmHg 29%
    14:00 +37°C° 0 mm 2 mps 690 mmHg 28%
    15:00 +37°C° 0 mm 2 mps 690 mmHg 28%
    16:00 +36°C° 0.1 mm 2 mps 690 mmHg 32%
    17:00 +35°C° 0.1 mm 2 mps 690 mmHg 37%
    18:00 +34°C° 0.1 mm 2 mps 690 mmHg 41%
    19:00 +31°C° 0.5 mm 2 mps 690 mmHg 48%
    20:00 +28°C° 0.5 mm 2 mps 690 mmHg 54%
    21:00 +26°C° 0.5 mm 2 mps 691 mmHg 61%
    22:00 +25°C° 0.1 mm 2 mps 691 mmHg 61%
    23:00 +25°C° 0.1 mm 2 mps 691 mmHg 61%
    Show more